Previsão horária em Plewica

Hoje, 8 Março, Segunda-feira

Tempo Temperatura Precipitação Vento Pressão Humidade
00:00 -4°C° 0 mm 3 m/s 752 mmHg 89%
01:00 -4°C° 0 mm 3 m/s 752 mmHg 90%
02:00 -5°C° 0 mm 3 m/s 752 mmHg 87%
03:00 -5°C° 0 mm 3 m/s 752 mmHg 85%
04:00 -5°C° 0 mm 4 m/s 752 mmHg 82%
05:00 -5°C° 0 mm 4 m/s 753 mmHg 80%
06:00 -4°C° 0 mm 4 m/s 753 mmHg 78%
07:00 -5°C° 0 mm 5 m/s 753 mmHg 75%
08:00 -4°C° 0 mm 5 m/s 754 mmHg 70%
09:00 -3°C° 0 mm 6 m/s 754 mmHg 66%
10:00 -2°C° 0 mm 6 m/s 755 mmHg 61%
11:00 -1°C° 0.1 mm 6 m/s 755 mmHg 59%
12:00 -1°C° 0.1 mm 6 m/s 755 mmHg 57%
13:00 -1°C° 0.1 mm 6 m/s 755 mmHg 55%
14:00 -1°C° 0.1 mm 6 m/s 755 mmHg 56%
15:00 -1°C° 0.1 mm 6 m/s 755 mmHg 57%
16:00 0°C° 0.1 mm 5 m/s 755 mmHg 58%
17:00 -2°C° 0 mm 5 m/s 756 mmHg 63%
18:00 -3°C° 0 mm 4 m/s 756 mmHg 69%
19:00 -4°C° 0 mm 3 m/s 756 mmHg 74%
20:00 -4°C° 0 mm 3 m/s 757 mmHg 77%
21:00 -5°C° 0 mm 3 m/s 757 mmHg 79%
22:00 -4°C° 0 mm 2 m/s 757 mmHg 81%
23:00 -4°C° 0 mm 2 m/s 758 mmHg 81%

Amanhã, 9 Março, Terça-feira

Tempo Temperatura Precipitação Vento Pressão Humidade
00:00 -4°C° 0 mm 2 m/s 758 mmHg 81%
01:00 -4°C° 0 mm 2 m/s 758 mmHg 82%
02:00 -4°C° 0 mm 2 m/s 758 mmHg 81%
03:00 -4°C° 0 mm 2 m/s 758 mmHg 81%
04:00 -4°C° 0 mm 2 m/s 758 mmHg 80%
05:00 -4°C° 0 mm 2 m/s 758 mmHg 77%
06:00 -4°C° 0 mm 2 m/s 758 mmHg 75%
07:00 -4°C° 0 mm 2 m/s 758 mmHg 72%
08:00 -1°C° 0 mm 1 m/s 758 mmHg 66%
09:00 0°C° 0 mm 1 m/s 758 mmHg 59%
10:00 0°C° 0 mm 1 m/s 759 mmHg 53%
11:00 +1°C° 0 mm 1 m/s 759 mmHg 51%
12:00 0°C° 0 mm 0 m/s 758 mmHg 49%
13:00 +1°C° 0 mm 0 m/s 758 mmHg 47%
14:00 +1°C° 0 mm 0 m/s 758 mmHg 48%
15:00 +1°C° 0 mm 1 m/s 758 mmHg 48%
16:00 +1°C° 0 mm 1 m/s 757 mmHg 49%
17:00 +1°C° 0 mm 1 m/s 757 mmHg 52%
18:00 0°C° 0 mm 1 m/s 758 mmHg 56%
19:00 -1°C° 0 mm 1 m/s 758 mmHg 59%
20:00 -3°C° 0 mm 2 m/s 758 mmHg 60%
21:00 -3°C° 0 mm 2 m/s 758 mmHg 60%
22:00 -3°C° 0 mm 2 m/s 758 mmHg 61%
23:00 -4°C° 0 mm 2 m/s 758 mmHg 61%

Depois de amanhã, 10 Março, Quarta-feira

Tempo Temperatura Precipitação Vento Pressão Humidade
00:00 -4°C° 0 mm 2 m/s 758 mmHg 61%
01:00 -4°C° 0 mm 2 m/s 757 mmHg 61%
02:00 -4°C° 0 mm 2 m/s 757 mmHg 60%
03:00 -4°C° 0 mm 2 m/s 757 mmHg 60%
04:00 -1°C° 0 mm 1 m/s 757 mmHg 59%
05:00 -1°C° 0 mm 1 m/s 757 mmHg 59%
06:00 -1°C° 0 mm 1 m/s 757 mmHg 58%
07:00 -1°C° 0 mm 1 m/s 757 mmHg 57%
08:00 -2°C° 0 mm 2 m/s 757 mmHg 53%
09:00 -1°C° 0 mm 2 m/s 758 mmHg 50%
10:00 +1°C° 0 mm 2 m/s 758 mmHg 46%
11:00 +2°C° 0 mm 2 m/s 758 mmHg 45%
12:00 +2°C° 0 mm 2 m/s 758 mmHg 44%
13:00 +3°C° 0 mm 2 m/s 758 mmHg 42%
14:00 +3°C° 0 mm 2 m/s 757 mmHg 44%
15:00 +2°C° 0 mm 2 m/s 757 mmHg 46%
16:00 +3°C° 0 mm 1 m/s 757 mmHg 47%
17:00 +1°C° 0 mm 2 m/s 757 mmHg 50%
18:00 -1°C° 0 mm 2 m/s 757 mmHg 54%
19:00 -2°C° 0 mm 2 m/s 757 mmHg 57%
20:00 -2°C° 0 mm 2 m/s 757 mmHg 57%
21:00 -2°C° 0 mm 3 m/s 757 mmHg 58%
22:00 -4°C° 0 mm 3 m/s 757 mmHg 59%
23:00 -4°C° 0 mm 3 m/s 757 mmHg 58%

11 Março, Quinta-feira

Tempo Temperatura Precipitação Vento Pressão Humidade
00:00 -4°C° 0 mm 3 m/s 757 mmHg 57%
01:00 -4°C° 0 mm 4 m/s 756 mmHg 56%
02:00 -4°C° 0 mm 4 m/s 756 mmHg 55%
03:00 -3°C° 0 mm 4 m/s 755 mmHg 54%
04:00 -3°C° 0 mm 4 m/s 755 mmHg 53%
05:00 -4°C° 0 mm 5 m/s 754 mmHg 52%
06:00 -4°C° 0 mm 5 m/s 754 mmHg 51%
07:00 -3°C° 0 mm 6 m/s 753 mmHg 50%
08:00 -2°C° 0 mm 6 m/s 753 mmHg 48%
09:00 -1°C° 0 mm 7 m/s 752 mmHg 47%
10:00 0°C° 0 mm 8 m/s 751 mmHg 46%
11:00 -1°C° 0.2 mm 8 m/s 750 mmHg 61%
12:00 -2°C° 0.2 mm 8 m/s 749 mmHg 77%
13:00 -2°C° 0.2 mm 8 m/s 748 mmHg 93%
14:00 -2°C° 1.1 mm 8 m/s 747 mmHg 94%
15:00 -2°C° 1.1 mm 7 m/s 746 mmHg 95%
16:00 -2°C° 1.1 mm 7 m/s 745 mmHg 97%
17:00 -1°C° 1.1 mm 7 m/s 744 mmHg 97%
18:00 -1°C° 1.1 mm 7 m/s 743 mmHg 96%
19:00 +1°C° 1.1 mm 6 m/s 742 mmHg 96%
20:00 +2°C° 1.3 mm 7 m/s 741 mmHg 95%
21:00 +2°C° 1.3 mm 8 m/s 741 mmHg 93%
22:00 +4°C° 1.3 mm 8 m/s 741 mmHg 91%
23:00 +3°C° 0 mm 7 m/s 741 mmHg 91%

12 Março, Sexta-feira

Tempo Temperatura Precipitação Vento Pressão Humidade
00:00 +2°C° 0 mm 6 m/s 741 mmHg 91%
01:00 +1°C° 0 mm 5 m/s 741 mmHg 90%
02:00 +2°C° 0 mm 5 m/s 741 mmHg 90%
03:00 +2°C° 0 mm 6 m/s 741 mmHg 89%
04:00 +2°C° 0 mm 6 m/s 742 mmHg 89%
05:00 +2°C° 0 mm 6 m/s 742 mmHg 88%
06:00 0°C° 0 mm 7 m/s 742 mmHg 87%
07:00 0°C° 0 mm 7 m/s 742 mmHg 86%
08:00 +1°C° 0 mm 8 m/s 742 mmHg 85%
09:00 +1°C° 0 mm 8 m/s 743 mmHg 84%
10:00 +1°C° 0 mm 9 m/s 743 mmHg 83%
11:00 +2°C° 0.2 mm 9 m/s 743 mmHg 79%
12:00 +3°C° 0.2 mm 9 m/s 744 mmHg 74%
13:00 +5°C° 0.2 mm 9 m/s 744 mmHg 70%
14:00 +4°C° 0.1 mm 8 m/s 745 mmHg 68%
15:00 +4°C° 0.1 mm 8 m/s 745 mmHg 66%
16:00 +4°C° 0.1 mm 7 m/s 745 mmHg 64%
17:00 +3°C° 0 mm 7 m/s 746 mmHg 67%
18:00 +2°C° 0 mm 6 m/s 746 mmHg 71%
19:00 +1°C° 0 mm 5 m/s 747 mmHg 74%
20:00 +1°C° 0 mm 5 m/s 747 mmHg 75%
21:00 +1°C° 0 mm 5 m/s 748 mmHg 77%
22:00 +1°C° 0 mm 5 m/s 748 mmHg 78%
23:00 0°C° 0 mm 5 m/s 748 mmHg 80%

13 Março, Sábado

Tempo Temperatura Precipitação Vento Pressão Humidade
00:00 0°C° 0 mm 5 m/s 748 mmHg 82%
01:00 0°C° 0 mm 5 m/s 748 mmHg 84%
02:00 0°C° 0 mm 5 m/s 748 mmHg 86%
03:00 -1°C° 0 mm 4 m/s 748 mmHg 88%
04:00 -1°C° 0 mm 4 m/s 748 mmHg 90%
05:00 -1°C° 0 mm 4 m/s 748 mmHg 89%
06:00 -1°C° 0 mm 4 m/s 748 mmHg 88%
07:00 -1°C° 0 mm 4 m/s 748 mmHg 87%
08:00 +1°C° 0 mm 4 m/s 748 mmHg 81%
09:00 +2°C° 0 mm 5 m/s 748 mmHg 75%
10:00 +5°C° 0 mm 5 m/s 748 mmHg 69%
11:00 +6°C° 0 mm 5 m/s 748 mmHg 65%
12:00 +7°C° 0 mm 5 m/s 748 mmHg 60%
13:00 +8°C° 0 mm 5 m/s 747 mmHg 56%
14:00 +8°C° 0 mm 5 m/s 747 mmHg 57%
15:00 +8°C° 0 mm 4 m/s 747 mmHg 58%
16:00 +8°C° 0 mm 4 m/s 746 mmHg 59%
17:00 +8°C° 0 mm 3 m/s 746 mmHg 64%
18:00 +7°C° 0 mm 3 m/s 746 mmHg 69%
19:00 +5°C° 0 mm 3 m/s 746 mmHg 74%
20:00 +4°C° 0 mm 3 m/s 746 mmHg 77%
21:00 +4°C° 0 mm 3 m/s 747 mmHg 81%
22:00 +4°C° 0 mm 3 m/s 747 mmHg 84%
23:00 +3°C° 0 mm 3 m/s 747 mmHg 87%
Mostrar mais

Necessitamos do seu Consentimento

A Meteoprog e os seus Fornecedores de Serviços podem armazenar e aceder a dados pessoais como cookies, identificadores do dispositivo ou outras tecnologias semelhantes existentes no seu dispositivo e processar estes dados para personalizar conteúdos e anúncios, assim como funcionalidades nas redes sociais e análise de tráfego.

  • Armazenar e/ou aceder a informações no seu dispositivo

    Os cookies, identificadores do dispositivo ou outras informações podem ser armazenados ou acedidos no seu dispositivo, para os fins acima indicados.

  • Anúncios e conteúdos personalizados, medição de anúncios e conteúdos, dados sobre o público-alvo e desenvolvimento de produtos

    Os anúncios e os conteúdos podem ser personalizados com base num perfil. Podem ser adicionados dados adicionais para uma maior personalização dos anúncios e dos conteúdos. A eficácia dos anúncios e dos conteúdos pode ser medida. Podem ser obtidas informações sobre o público que visualizou os anúncios e os conteúdos. Estes dados podem ser usados para desenvolver ou melhorar sistemas, softwares ou a experiência do utilizador.

Ao clicar em "Eu concordo”, permitirá o uso de cookies, identificadores do dispositivo e web beacons mencionados ou outras tecnologias semelhantes. As configurações do navegador do seu dispositivo podem ser alteradas.

Para certos fins, podem ser invocados interesses legítimos ao invés de consentimento. Pode ler mais informação sobre este assunto na nossa Política de Privacidade e Cookies.